This demonstration page uses our WeatherBlox Daily Observations layout. Learn more.

Left ArrowRight Arrow

44.8408, -93.29828

Hourly Observations for May 16, 2015

Temp ( °F °C ) Dew Point ( °F °C ) Humidity (%) Winds ( mph kmh ) Pressure ( in mb ) Visibility ( mi km ) Precip ( " mm )
12:53 am 00:53 Cloudy 59 15 52 11.1 78 78 E 7 11 29.98 1015 10 16 0.00 0.00
1:53 am 01:53 Cloudy 59 15 51 10.6 75 75 ENE 8 13 29.96 1015 10 16 0.00 0.00
2:16 am 02:16 Cloudy 59 15 52 11 77 77 E 9 15 29.94 1014 10 16 0.00 0.00
2:53 am 02:53 Cloudy 59 15 51 10.6 75 75 E 8 13 29.94 1014 10 16 0.00 0.00
3:53 am 03:53 Cloudy 58 14.4 51 10.6 78 78 E 8 13 29.92 1013 10 16 0.00 0.00
4:01 am 04:01 Cloudy 58 14.4 51 10.6 78 78 E 8 13 29.94 1014 10 16 0.00 0.00
4:53 am 04:53 Cloudy 58 14.4 51 10.6 78 78 E 10 17 29.91 1013 10 16 0.00 0.00
5:53 am 05:53 Cloudy 58 14.4 51 10.6 78 78 ENE 8 13 29.92 1013 10 16 0.00 0.00
6:18 am 06:18 Mostly Cloudy 58 14.4 51 10.6 78 78 E 6 9 29.94 1014 10 16 0.00 0.00
6:53 am 06:53 Mostly Cloudy 59 15 51 10.6 75 75 ESE 9 15 29.93 1014 10 16 0.00 0.00
7:53 am 07:53 Mostly Cloudy 61 16.1 52 11.1 72 72 E 14 22 29.91 1013 10 16 0.00 0.00
8:53 am 08:53 Cloudy 62 16.7 53 11.7 73 73 ESE 14 22 29.93 1013 10 16 0.00 0.00
9:35 am 09:35 Mostly Cloudy 65 18.3 55 12.8 70 70 ESE 14 22 29.91 1013 10 16 0.00 0.00
9:53 am 09:53 Mostly Cloudy 66 18.9 55 12.8 68 68 ESE 10 17 29.91 1013 10 16 0.00 0.00
10:53 am 10:53 Mostly Cloudy 67 19.4 57 13.9 71 71 ESE 13 20 29.90 1012 10 16 0.00 0.03
11:53 am 11:53 Cloudy 70 21.1 60 15.6 71 71 SE 13 20 29.89 1012 10 16 0.00 0.00
12:53 pm 12:53 Cloudy 71 21.7 61 16.1 71 71 SE 15 24 29.87 1011 10 16 0.00 0.00
1:53 pm 13:53 Cloudy 73 22.8 63 17.2 71 71 ESE 13 20 29.85 1011 10 16 0.00 0.00
2:44 pm 14:44 Cloudy 73 23 64 18 74 74 SE 14 22 29.80 1009 10 16 0.00 0.00
2:53 pm 14:53 Cloudy 74 23.3 64 17.8 71 71 SE 14 22 29.83 1010 10 16 0.00 0.00
3:11 pm 15:11 Cloudy 74 23.3 64 17.8 71 71 SE 13 20 29.80 1009 10 16 0.00 0.00
3:53 pm 15:53 Cloudy 75 23.9 65 18.3 71 71 SE 13 20 29.82 1010 10 16 0.00 0.00
4:09 pm 16:09 Cloudy 75 23.9 64 17.8 69 69 SE 18 30 29.80 1009 10 16 0.00 0.00
4:53 pm 16:53 Mostly Cloudy 75 23.9 64 17.8 69 69 SE 13 20 29.81 1009 10 16 0.00 0.00
5:53 pm 17:53 Mostly Cloudy 76 24.4 64 17.8 67 67 SE 18 30 29.78 1009 10 16 0.00 0.00
6:53 pm 18:53 Mostly Cloudy 76 24.4 65 18.3 69 69 ESE 18 30 29.77 1008 10 16 0.00 0.00
7:53 pm 19:53 Mostly Cloudy 75 23.9 64 17.8 69 69 ESE 16 26 29.77 1008 9 14 0.00 0.00
8:41 pm 20:41 Cloudy with Nearby Thunderstorms 74 23.3 64 17.8 71 71 E 17 28 29.74 1007 10 16 0.00 0.00
8:53 pm 20:53 Cloudy with Nearby Thunderstorms 73 22.8 65 18.3 76 76 SE 22 35 29.78 1008 2 3 0.00 0.03
8:58 pm 20:58 Cloudy with Nearby Thunderstorms 72 22 66 19 83 83 SE 18 30 29.77 1008 1 2 0.00 0.00
9:05 pm 21:05 Cloudy with Nearby Thunderstorms 70 21.1 66 18.9 87 87 SE 14 22 29.77 1008 4 6 0.05 1.27
9:53 pm 21:53 Cloudy 69 20.6 65 18.3 87 87 ESE 13 20 29.79 1009 10 16 0.06 1.52
10:53 pm 22:53 Cloudy 68 20 64 17.8 87 87 ESE 9 15 29.82 1010 10 16 0.00 0.00
11:53 pm 23:53 Cloudy 68 20 65 18.3 90 90 ESE 10 17 29.80 1009 10 16 0.00 0.00

Powered by AerisWeather